Stad Amsterdam — PECA — position and weather

sailwx.info

Track history (hours):
 
Tides and Currents Weather Stations Pressure Air Temp Water Temp Dewpoint Dewpoint Depression Visibility Wind Speed Wind Dir Waves Ship Positions

Stad Amsterdam (Netherlands)

Ship's website: http://www.stadamsterdam.com/content/home/index.xml

Last reported at 2018-Feb-19 15:59 UTC. Time now 2018-Feb-19 16:03 UTC.
Position N 32°60' W 117°50'.

Length 76 m; beam 10 m.

Type: Sailing vessel. MMSI: 246494000.

Date/timePositionNaut miles runAvg speedWind from/ knotsBaromVisibWave heightAir tempDewpointWater temp
2018-Feb-19 15:59N 32°60' W 117°50'1 2.7
2018-Feb-19 15:30N 32°59' W 117°50'1 1.9
2018-Feb-19 15:00N 32°58' W 117°49'1 2.0
2018-Feb-19 14:30N 32°57' W 117°49'1 1.5
2018-Feb-19 14:00N 32°56' W 117°49'1 1.3
2018-Feb-19 13:30N 32°55' W 117°49'1 1.7
2018-Feb-19 13:00N 32°54' W 117°49'1 1.4
2018-Feb-19 12:30N 32°54' W 117°49'1 2.0
2018-Feb-19 12:00N 32°53' W 117°49'1 2.3
2018-Feb-19 11:28N 32°52' W 117°48'1 2.6
2018-Feb-19 10:58N 32°50' W 117°48'1 3.2
2018-Feb-19 10:30N 32°49' W 117°47'2 3.3
2018-Feb-19 10:00N 32°47' W 117°46'2 3.8
2018-Feb-19 09:30N 32°46' W 117°46'2 4.1
2018-Feb-19 09:00N 32°44' W 117°45'2 4.6
2018-Feb-19 08:30N 32°42' W 117°43'2 4.8
2018-Feb-19 08:00N 32°39' W 117°42'5 4.9
2018-Feb-19 07:00N 32°36' W 117°38'3 6.1
2018-Feb-19 06:30N 32°36' W 117°35'3 6.1
2018-Feb-19 06:00N 32°36' W 117°31'  
Track history (hours):
 
Tides and Currents Weather Stations Pressure Air Temp Water Temp Dewpoint Dewpoint Depression Visibility Wind Speed Wind Dir Waves Ship Positions

Stad Amsterdam (Netherlands)

Ship's website: http://www.stadamsterdam.com/content/home/index.xml

Last reported at 2018-Feb-19 15:59 UTC. Time now 2018-Feb-19 16:03 UTC.
Position N 32°60' W 117°50'.

Length 76 m; beam 10 m.

Type: Sailing vessel. MMSI: 246494000.

Date/timePositionNaut miles runAvg speedWind from/ knotsBaromVisibWave heightAir tempDewpointWater temp
2018-Feb-19 15:59N 32°60' W 117°50'1 2.7
2018-Feb-19 15:30N 32°59' W 117°50'1 1.9
2018-Feb-19 15:00N 32°58' W 117°49'1 2.0
2018-Feb-19 14:30N 32°57' W 117°49'1 1.5
2018-Feb-19 14:00N 32°56' W 117°49'1 1.3
2018-Feb-19 13:30N 32°55' W 117°49'1 1.7
2018-Feb-19 13:00N 32°54' W 117°49'1 1.4
2018-Feb-19 12:30N 32°54' W 117°49'1 2.0
2018-Feb-19 12:00N 32°53' W 117°49'1 2.3
2018-Feb-19 11:28N 32°52' W 117°48'1 2.6
2018-Feb-19 10:58N 32°50' W 117°48'1 3.2
2018-Feb-19 10:30N 32°49' W 117°47'2 3.3
2018-Feb-19 10:00N 32°47' W 117°46'2 3.8
2018-Feb-19 09:30N 32°46' W 117°46'2 4.1
2018-Feb-19 09:00N 32°44' W 117°45'2 4.6
2018-Feb-19 08:30N 32°42' W 117°43'2 4.8
2018-Feb-19 08:00N 32°39' W 117°42'5 4.9
2018-Feb-19 07:00N 32°36' W 117°38'3 6.1
2018-Feb-19 06:30N 32°36' W 117°35'3 6.1
2018-Feb-19 06:00N 32°36' W 117°31'  

Dump ship's entire track history